Location: Franzen
(48.6167°N, 15.3833°E)
Time: 13:46:07
(UTC+00:00)

Iridium 4 Rocket - Pass Details

Date: 22 April 2021
Orbit: 585 x 903 km, 86.9° (Epoch: 16 May)

Event Time Altitude Azimuth Distance (km) Brightness Sun altitude
Exits shadow 21:58:16 54° 63° (ENE) 934 3.9 -27.5°
Drops below altitude 10° 22:03:05 10° 10° (N) 2,423 6.9 -27.7°
Sets 22:05:37 0° 7° (N) 3,405 7.9 -27.8°
